Regional Weather Roundup
Issued by NWS

Home | Current Version | Previous Version | Text Only | Print | Product List | Glossary On
Versions: 1 2 3 4 5 6 7 8 9 10 11 12 13 14 15 16 17 18 19 20 21 22 23 24 25 26 27 28 29 30 31 32 33 34 35 36 37 38 39 40 41 42 43 44 45 46 47 48 49 50
000
ASUS43 KLSX 262259
RWRMO

WEATHER SUMMARY FOR MISSOURI
NATIONAL WEATHER SERVICE SPRINGFIELD MO
500 PM CST MON JAN 26 2015

NOTE: "FAIR" INDICATES FEW OR NO CLOUDS BELOW 12,000 FEET WITH NO
       SIGNIFICANT WEATHER AND/OR OBSTRUCTIONS TO VISIBILITY.
       CURRENT SKY AND/OR WEATHER CONDITIONS ARE NOT AVAILABLE FOR
       CHILLICOTHE AND FARMINGTON.

MOZ001>031-035>038-043-044-053-054-270000-
...NORTHERN AND WESTERN MISSOURI...

CITY           SKY/WX    TMP DP  RH WIND       PRES   REMARKS
KANSAS CTY INT PTCLDY    58  33  39 N14G22    29.93R
KANSAS C DTWN  CLEAR     61  33  35 NW9       29.92R
LEE`S SUMMIT   CLEAR     58  33  39 N9        29.93R
ST JOSEPH      CLEAR     57  33  40 N13       29.94R
CHILLICOTHE      N/A     56  36  47 NW10      29.91R
KIRKSVILLE     CLEAR     50  36  58 NW12      29.87R

$$
MOZ066>068-077>081-088>096-101>105-270000-
...SOUTHWEST MISSOURI...

CITY           SKY/WX    TMP DP  RH WIND       PRES   REMARKS
SPRINGFIELD    CLEAR     55  35  47 W16       29.92S
JOPLIN         CLEAR     58  35  42 W8        29.97R

$$
MOZ032>034-039>042-045>050-055>058-069>072-270000-
...CENTRAL MISSOURI...

CITY           SKY/WX    TMP DP  RH WIND       PRES   REMARKS
COLUMBIA       CLEAR     51  36  56 W13G21    29.89R
JEFFERSON CITY CLEAR     53  36  52 NW10      29.89R
ROLLA          CLEAR     50  34  54 W14       29.86R
SEDALIA        CLEAR     53  37  54 NW8       29.91R
OSAGE BEACH    CLEAR     55  34  44 W12G17    29.89R

$$
MOZ051-052-059>065-270000-
...EAST CENTRAL MISSOURI...

CITY           SKY/WX    TMP DP  RH WIND       PRES   REMARKS
ST LOUIS INTL  PTCLDY    38  29  70 SE8       29.89S
SPIRIT OF STL  PTCLDY    42  32  67 CALM      29.88S
ST CHARLES     PTCLDY    34  30  85 E8        29.89R WCI  27

$$
MOZ072>076-082>087-097>100-106>115-270000-
...SOUTH CENTRAL AND SOUTHEAST MISSOURI...

CITY           SKY/WX    TMP DP  RH WIND       PRES   REMARKS
CAPE GIRARDEAU PTCLDY    39  33  79 SW10      29.92F
FARMINGTON     CLEAR     43  28  56 MISG      29.92R
POPLAR BLUFF   PTCLDY    44  33  65 S6        29.91S
WEST PLAINS    CLEAR     53  31  42 W13G21    29.89R

$$



USA.gov is the U.S. government's official web portal to all federal, state and local government web resources and services.